QPF
0.00 0.00 0.00 0.00 0.00 0.00 0.00 0.00 0.00 0.00 0.00 0.00 0.00 0.00 0.00 0.00 0.00 0.00 0.00 0.00 0.01 0.00 0.00 0.00 0.00 0.00 0.01 0.02 0.02 0.01 0.01 0.01 0.00 0.02 0.02 0.03 0.02 0.03 0.03 0.01 0.02 0.01 0.02 0.03 0.07 0.08 0.04 0.00 0.01 0.01 0.05 0.02 0.00 0.00
0.00 0.00 0.00 0.00 0.00 0.00 0.00 0.00 0.00 0.00 0.00 0.00 0.00 0.00 0.00 0.00 0.00 0.00 0.00 0.01 0.01 0.01 0.00 0.00 0.00 0.01 0.03 0.04 0.02 0.01 0.02 0.02 0.01 0.01 0.01 0.01 0.04 0.11 0.13 0.10 0.08 0.03 0.03 0.02 0.00 0.07 0.05 0.00 0.01 0.00 0.00 0.00 0.00 0.00
0.00 0.00 0.00 0.00 0.00 0.00 0.00 0.00 0.00 0.00 0.00 0.00 0.00 0.00 0.00 0.00 0.00 0.00 0.00 0.00 0.01 0.00 0.00 0.00 0.01 0.00 0.00 0.01 0.01 0.01 0.01 0.01 0.01 0.01 0.01 0.01 0.06 0.07 0.04 0.03 0.09 0.00 0.05 0.04 0.07 0.07 0.05 0.05 0.03 0.01 0.00 0.00 0.00 0.00
0.00 0.00 0.00 0.00 0.00 0.00 0.00 0.00 0.00 0.00 0.00 0.00 0.00 0.00 0.00 0.00 0.00 0.00 0.00 0.01 0.01 0.01 0.00 0.00 0.00 0.00 0.00 0.00 0.01 0.00 0.01 0.01 0.02 0.01 0.01 0.01 0.01 0.01 0.01 0.02 0.01 0.00 0.01 0.02 0.03 0.07 0.09 0.05 0.02 0.01 0.00 0.00 0.00 0.00
0.00 0.00 0.00 0.00 0.00 0.00 0.00 0.00 0.00 0.00 0.00 0.00 0.00 0.00 0.00 0.00 0.00 0.00 0.00 0.00 0.00 0.01 0.00 0.00 0.00 0.00 0.00 0.00 0.00 0.00 0.00 0.01 0.00 0.01 0.01 0.00 0.01 0.00 0.00 0.01 0.01 0.00 0.00 0.00 0.00 0.01 0.00 0.00 0.00 0.00 0.00 0.00 0.00 0.00
0.00 0.00 0.00 0.00 0.00 0.00 0.00 0.00 0.00 0.00 0.00 0.00 0.00 0.00 0.00 0.00 0.00 0.00 0.00 0.01 0.00 0.01 0.01 0.00 0.00 0.00 0.00 0.00 0.00 0.00 0.00 0.00 0.00 0.00 0.00 0.00 0.01 0.01 0.00 0.00 0.00 0.00 0.00 0.00 0.00 0.00 0.00 0.00 0.00 0.00 0.00 0.00 0.00 0.00
0.00 0.00 0.00 0.00 0.00 0.00 0.00 0.00 0.00 0.00 0.00 0.00 0.00 0.00 0.00 0.00 0.00 0.00 0.01 0.00 0.00 0.00 0.01 0.00 0.00 0.00 0.00 0.00 0.00 0.01 0.00 0.00 0.00 0.00 0.00 0.00 0.01 0.02 0.00 0.00 0.01 0.00 0.00 0.00 0.00 0.00 0.00 0.00 0.00 0.00 0.00 0.00 0.00 0.00
0.01 0.00 0.00 0.00 0.00 0.00 0.00 0.00 0.00 0.00 0.00 0.00 0.00 0.00 0.00 0.00 0.00 0.00 0.00 0.00 0.00 0.00 0.01 0.01 0.00 0.00 0.00 0.00 0.01 0.01 0.03 0.02 0.00 0.00 0.00 0.00 0.00 0.04 0.02 0.00 0.00 0.00 0.00 0.00 0.01 0.01 0.00 0.00 0.00 0.00 0.00 0.00 0.00 0.00
0.01 0.00 0.00 0.00 0.00 0.00 0.00 0.00 0.00 0.00 0.00 0.00 0.00 0.00 0.00 0.00 0.01 0.01 0.00 0.00 0.00 0.00 0.01 0.00 0.00 0.01 0.00 0.00 0.00 0.01 0.03 0.02 0.02 0.01 0.00 0.00 0.00 0.01 0.02 0.00 0.00 0.00 0.00 0.01 0.06 0.03 0.00 0.00 0.00 0.00 0.00 0.00 0.00 0.00
0.00 0.00 0.00 0.00 0.01 0.00 0.00 0.00 0.00 0.00 0.00 0.00 0.00 0.00 0.00 0.00 0.00 0.00 0.00 0.00 0.01 0.01 0.01 0.00 0.00 0.00 0.01 0.00 0.01 0.01 0.01 0.01 0.00 0.00 0.00 0.00 0.00 0.02 0.00 0.00 0.00 0.00 0.00 0.00 0.00 0.00 0.00 0.00 0.00 0.00 0.00 0.00 0.00 0.00
0.00 0.00 0.00 0.00 0.00 0.00 0.00 0.00 0.00 0.00 0.00 0.00 0.00 0.00 0.00 0.00 0.00 0.01 0.01 0.00 0.00 0.00 0.00 0.00 0.00 0.00 0.00 0.00 0.00 0.00 0.00 0.00 0.00 0.00 0.00 0.00 0.01 0.01 0.00 0.00 0.00 0.00 0.00 0.00 0.00 0.00 0.00 0.00 0.00 0.00 0.00 0.00 0.00 0.00
0.00 0.00 0.00 0.00 0.00 0.00 0.00 0.00 0.00 0.00 0.00 0.00 0.00 0.00 0.00 0.00 0.00 0.01 0.00 0.00 0.00 0.00 0.00 0.00 0.00 0.00 0.00 0.00 0.00 0.00 0.00 0.00 0.00 0.00 0.00 0.00 0.01 0.00 0.00 0.00 0.00 0.00 0.00 0.00 0.00 0.00 0.00 0.00 0.00 0.00 0.00 0.00 0.00 0.00
0.00 0.00 0.00 0.00 0.00 0.00 0.00 0.00 0.00 0.00 0.00 0.00 0.00 0.00 0.00 0.00 0.00 0.00 0.00 0.00 0.00 0.00 0.00 0.00 0.00 0.00 0.00 0.00 0.00 0.00 0.00 0.00 0.00 0.00 0.00 0.01 0.01 0.00 0.00 0.00 0.00 0.00 0.00 0.00 0.00 0.00 0.00 0.00 0.00 0.00 0.00 0.00 0.00 0.00
0.00 0.00 0.00 0.00 0.00 0.00 0.00 0.00 0.00 0.00 0.00 0.00 0.00 0.00 0.00 0.00 0.00 0.00 0.00 0.00 0.00 0.00 0.00 0.00 0.00 0.00 0.00 0.00 0.00 0.00 0.00 0.00 0.00 0.00 0.00 0.01 0.00 0.00 0.00 0.00 0.00 0.00 0.00 0.00 0.00 0.00 0.00 0.00 0.00 0.00 0.00 0.00 0.00 0.00
0.01 0.01 0.01 0.01 0.00 0.00 0.00 0.00 0.00 0.00 0.00 0.00 0.00 0.00 0.00 0.00 0.00 0.00 0.00 0.00 0.00 0.00 0.00 0.00 0.00 0.00 0.00 0.00 0.00 0.00 0.00 0.00 0.00 0.00 0.01 0.00 0.00 0.00 0.00 0.00 0.00 0.00 0.00 0.00 0.00 0.00 0.00 0.00 0.00 0.00 0.00 0.00 0.00 0.00
0.01 0.01 0.00 0.00 0.00 0.00 0.00 0.00 0.00 0.00 0.00 0.00 0.00 0.00 0.00 0.00 0.00 0.00 0.00 0.00 0.00 0.00 0.00 0.00 0.00 0.00 0.00 0.00 0.00 0.00 0.00 0.00 0.00 0.01 0.00 0.00 0.00 0.00 0.00 0.00 0.00 0.00 0.00 0.00 0.00 0.00 0.00 0.00 0.00 0.00 0.00 0.00 0.00 0.00
0.01 0.00 0.00 0.00 0.00 0.00 0.00 0.00 0.01 0.01 0.00 0.00 0.00 0.00 0.00 0.00 0.00 0.00 0.00 0.00 0.00 0.00 0.00 0.00 0.00 0.00 0.00 0.00 0.00 0.00 0.00 0.00 0.00 0.01 0.00 0.00 0.00 0.00 0.00 0.00 0.00 0.00 0.00 0.00 0.00 0.00 0.00 0.00 0.00 0.00 0.01 0.00 0.00 0.00
0.00 0.00 0.00 0.00 0.00 0.00 0.00 0.00 0.00 0.00 0.00 0.00 0.00 0.00 0.00 0.00 0.00 0.00 0.00 0.00 0.00 0.00 0.00 0.00 0.00 0.00 0.00 0.00 0.00 0.00 0.00 0.00 0.00 0.00 0.00 0.00 0.00 0.00 0.00 0.00 0.00 0.00 0.00 0.00 0.00 0.00 0.00 0.00 0.00 0.00 0.00 0.00 0.00 0.00
0.00 0.00 0.00 0.00 0.00 0.00 0.00 0.00 0.00 0.00 0.00 0.00 0.00 0.00 0.00 0.00 0.00 0.00 0.00 0.00 0.00 0.00 0.00 0.00 0.00 0.00 0.00 0.00 0.00 0.00 0.00 0.00 0.00 0.00 0.00 0.00 0.00 0.00 0.00 0.00 0.00 0.00 0.00 0.00 0.00 0.00 0.00 0.00 0.00 0.00 0.00 0.00 0.00 0.01
0.01 0.00 0.00 0.00 0.00 0.01 0.00 0.00 0.00 0.00 0.00 0.00 0.00 0.00 0.00 0.00 0.00 0.00 0.00 0.00 0.00 0.00 0.00 0.00 0.00 0.00 0.00 0.00 0.00 0.00 0.00 0.00 0.00 0.00 0.00 0.00 0.00 0.00 0.00 0.00 0.00 0.00 0.00 0.00 0.00 0.00 0.00 0.00 0.00 0.00 0.00 0.00 0.01 0.03
0.06 0.02 0.01 0.00 0.00 0.00 0.01 0.01 0.00 0.00 0.00 0.00 0.00 0.00 0.00 0.00 0.00 0.00 0.00 0.00 0.00 0.00 0.00 0.00 0.00 0.00 0.00 0.00 0.00 0.00 0.00 0.00 0.00 0.00 0.00 0.00 0.00 0.00 0.00 0.00 0.00 0.00 0.00 0.00 0.00 0.00 0.00 0.01 0.00 0.00 0.00 0.00 0.02 0.03
0.03 0.03 0.04 0.05 0.05 0.02 0.01 0.00 0.00 0.00 0.00 0.00 0.00 0.00 0.00 0.00 0.00 0.00 0.00 0.01 0.00 0.00 0.00 0.00 0.00 0.00 0.00 0.00 0.00 0.00 0.00 0.00 0.00 0.00 0.00 0.00 0.00 0.00 0.00 0.00 0.00 0.00 0.00 0.00 0.00 0.01 0.01 0.00 0.00 0.00 0.00 0.00 0.00 0.00
0.07 0.06 0.07 0.04 0.05 0.05 0.01 0.00 0.00 0.00 0.00 0.00 0.00 0.00 0.00 0.00 0.00 0.00 0.00 0.00 0.00 0.00 0.00 0.00 0.00 0.00 0.00 0.00 0.00 0.00 0.00 0.00 0.00 0.00 0.00 0.00 0.00 0.00 0.00 0.00 0.00 0.00 0.00 0.00 0.00 0.01 0.00 0.00 0.00 0.00 0.00 0.00 0.00 0.00
0.05 0.08 0.09 0.03 0.01 0.02 0.00 0.01 0.01 0.00 0.00 0.00 0.00 0.00 0.00 0.00 0.00 0.00 0.00 0.00 0.00 0.00 0.00 0.00 0.00 0.00 0.00 0.00 0.00 0.00 0.00 0.00 0.00 0.00 0.00 0.00 0.00 0.00 0.00 0.00 0.00 0.00 0.00 0.00 0.00 0.00 0.00 0.00 0.00 0.00 0.00 0.00 0.00 0.01
0.08 0.07 0.06 0.04 0.01 0.01 0.02 0.01 0.00 0.00 0.00 0.00 0.00 0.00 0.00 0.00 0.00 0.00 0.00 0.00 0.00 0.00 0.00 0.00 0.00 0.00 0.00 0.00 0.00 0.00 0.00 0.00 0.00 0.00 0.00 0.00 0.00 0.00 0.00 0.00 0.00 0.00 0.00 0.00 0.00 0.00 0.00 0.00 0.00 0.00 0.00 0.00 0.00 0.02
0.06 0.01 0.01 0.00 0.00 0.00 0.00 0.00 0.00 0.00 0.00 0.00 0.00 0.00 0.00 0.01 0.01 0.00 0.00 0.00 0.00 0.00 0.00 0.00 0.00 0.00 0.00 0.00 0.00 0.00 0.00 0.00 0.00 0.00 0.00 0.00 0.00 0.00 0.00 0.00 0.00 0.01 0.00 0.00 0.00 0.00 0.00 0.00 0.00 0.00 0.01 0.00 0.00 0.00
0.03 0.01 0.01 0.00 0.00 0.00 0.00 0.00 0.00 0.00 0.00 0.00 0.00 0.01 0.01 0.01 0.00 0.00 0.00 0.00 0.00 0.00 0.00 0.00 0.00 0.00 0.00 0.00 0.00 0.00 0.00 0.00 0.00 0.00 0.00 0.00 0.00 0.00 0.00 0.00 0.00 0.00 0.00 0.00 0.00 0.00 0.00 0.00 0.00 0.00 0.02 0.00 0.00 0.00
0.00 0.00 0.00 0.00 0.00 0.00 0.00 0.00 0.00 0.00 0.00 0.00 0.00 0.01 0.00 0.00 0.00 0.00 0.00 0.00 0.00 0.00 0.00 0.00 0.00 0.00 0.00 0.00 0.00 0.00 0.00 0.00 0.00 0.00 0.00 0.00 0.00 0.00 0.00 0.00 0.00 0.00 0.00 0.00 0.00 0.00 0.00 0.00 0.00 0.00 0.01 0.00 0.00 0.00
0.00 0.00 0.00 0.00 0.00 0.00 0.00 0.00 0.00 0.00 0.00 0.00 0.00 0.00 0.00 0.00 0.00 0.00 0.00 0.00 0.00 0.00 0.00 0.00 0.00 0.00 0.00 0.00 0.00 0.00 0.00 0.00 0.00 0.00 0.00 0.00 0.00 0.00 0.00 0.00 0.00 0.00 0.00 0.00 0.00 0.00 0.00 0.00 0.00 0.01 0.00 0.00 0.00 0.00
0.00 0.00 0.00 0.00 0.00 0.00 0.00 0.00 0.00 0.00 0.00 0.00 0.01 0.01 0.00 0.00 0.00 0.00 0.00 0.00 0.00 0.00 0.00 0.00 0.00 0.00 0.00 0.00 0.00 0.00 0.00 0.00 0.00 0.00 0.00 0.00 0.00 0.00 0.00 0.00 0.00 0.00 0.00 0.00 0.00 0.00 0.00 0.00 0.00 0.00 0.00 0.00 0.00 0.00
0.00 0.00 0.01 0.01 0.00 0.00 0.00 0.00 0.00 0.00 0.00 0.00 0.00 0.01 0.00 0.00 0.00 0.00 0.00 0.00 0.00 0.00 0.00 0.00 0.00 0.00 0.00 0.00 0.00 0.00 0.00 0.00 0.00 0.00 0.00 0.00 0.00 0.00 0.00 0.00 0.00 0.00 0.00 0.00 0.00 0.00 0.00 0.00 0.00 0.00 0.00 0.00 0.00 0.00
0.01 0.01 0.01 0.01 0.01 0.01 0.00 0.00 0.01 0.02 0.01 0.01 0.00 0.00 0.00 0.01 0.01 0.02 0.01 0.00 0.01 0.01 0.02 0.01 0.01 0.03 0.04 0.05 0.04 0.01 0.00 0.00 0.00 0.00 0.00 0.00 0.00 0.00 0.00 0.00 0.00 0.00 0.00 0.00 0.00 0.00 0.00 0.00 0.00 0.00 0.00 0.00 0.00 0.00
0.04 0.03 0.03 0.05 0.07 0.04 0.02 0.01 0.01 0.01 0.00 0.00 0.00 0.00 0.00 0.00 0.00 0.01 0.00 0.00 0.00 0.00 0.00 0.00 0.00 0.00 0.00 0.02 0.05 0.06 0.04 0.01 0.02 0.02 0.01 0.00 0.00 0.00 0.00 0.00 0.00 0.00 0.00 0.00 0.00 0.00 0.00 0.00 0.00 0.00 0.00 0.00 0.00 0.00
MSLP
1012.81 1013.36 1013.94 1014.70 1015.26 1015.57 1015.70 1015.86 1016.01 1016.07 1016.05 1015.97 1015.89 1015.77 1015.63 1015.49 1015.38 1015.41 1015.05 1014.63 1015.10 1015.30 1014.08 1013.30 1012.99 1013.11 1012.74 1012.50 1012.65 1012.07 1011.66 1011.41 1011.62 1011.81 1011.69 1011.13 1009.99 1008.81 1007.81 1006.99 1006.69 1006.64 1007.29 1007.94 1008.24 1007.93 1007.45 1005.84 1004.66 1004.69 1006.05 1005.89 1005.04 1004.82
1012.84 1013.51 1014.18 1014.73 1015.14 1015.42 1015.64 1015.83 1015.96 1016.00 1016.01 1015.94 1015.83 1015.72 1015.58 1015.51 1015.42 1015.33 1015.28 1014.48 1014.56 1015.12 1013.94 1012.75 1012.04 1011.67 1011.94 1011.49 1011.78 1011.89 1012.25 1012.19 1012.35 1012.62 1012.52 1011.83 1010.47 1009.60 1008.97 1008.22 1007.46 1007.42 1007.66 1007.84 1007.96 1008.18 1007.59 1007.15 1006.51 1005.43 1005.39 1005.47 1005.56 1005.74
1013.06 1013.63 1014.22 1014.72 1015.09 1015.40 1015.62 1015.75 1015.88 1015.94 1015.94 1015.86 1015.77 1015.63 1015.53 1015.41 1015.33 1015.37 1015.27 1014.61 1014.68 1014.75 1013.37 1012.02 1011.06 1010.18 1010.08 1010.30 1010.31 1011.58 1011.56 1011.81 1012.15 1012.39 1012.84 1012.30 1011.10 1009.88 1009.10 1008.42 1007.98 1007.85 1007.68 1007.79 1007.74 1008.01 1008.01 1007.55 1006.82 1006.07 1005.92 1006.21 1006.42 1006.51
1013.10 1013.69 1014.24 1014.64 1015.01 1015.28 1015.49 1015.63 1015.72 1015.80 1015.80 1015.70 1015.62 1015.56 1015.44 1015.25 1015.16 1015.12 1015.16 1014.45 1014.53 1014.70 1014.20 1012.02 1010.37 1010.18 1009.72 1009.67 1009.83 1010.26 1010.76 1011.18 1011.56 1011.97 1012.26 1011.99 1011.07 1009.35 1008.78 1008.27 1007.78 1007.36 1007.08 1007.25 1007.84 1008.03 1007.83 1007.35 1006.52 1006.36 1006.44 1006.61 1006.98 1007.15
1013.13 1013.69 1014.15 1014.54 1014.85 1015.10 1015.33 1015.49 1015.57 1015.63 1015.62 1015.54 1015.47 1015.40 1015.26 1015.07 1014.92 1014.81 1014.66 1014.15 1013.95 1014.73 1014.33 1012.83 1011.06 1009.58 1009.10 1009.22 1009.48 1009.65 1010.28 1010.86 1011.39 1011.93 1011.84 1011.39 1010.05 1009.14 1008.32 1007.79 1007.48 1006.64 1006.49 1006.99 1007.18 1006.82 1006.74 1006.67 1006.52 1006.53 1006.87 1007.31 1007.48 1007.62
1013.05 1013.58 1014.00 1014.36 1014.63 1014.94 1015.20 1015.36 1015.42 1015.45 1015.46 1015.40 1015.30 1015.18 1014.99 1014.83 1014.68 1014.83 1014.38 1013.59 1013.44 1013.89 1014.19 1013.23 1011.09 1009.51 1009.13 1009.11 1009.23 1009.57 1010.08 1010.46 1011.08 1011.48 1011.36 1010.33 1009.10 1009.11 1008.89 1008.29 1007.72 1006.72 1006.10 1006.17 1006.65 1006.45 1006.43 1006.58 1006.73 1006.82 1007.27 1007.54 1007.74 1007.91
1012.87 1013.42 1013.87 1014.19 1014.51 1014.83 1015.06 1015.17 1015.25 1015.28 1015.25 1015.17 1015.04 1014.85 1014.68 1014.57 1014.73 1014.45 1014.17 1013.72 1013.45 1013.67 1014.10 1013.41 1011.76 1009.48 1009.03 1009.12 1009.40 1009.58 1009.70 1010.19 1010.72 1011.13 1010.76 1009.93 1009.00 1008.80 1008.63 1008.22 1007.60 1006.97 1006.60 1006.49 1006.18 1006.30 1006.65 1006.67 1007.06 1007.15 1007.49 1007.94 1008.12 1008.36
1012.55 1013.11 1013.67 1014.10 1014.44 1014.72 1014.92 1015.04 1015.11 1015.08 1014.98 1014.84 1014.64 1014.38 1014.16 1014.10 1014.13 1014.03 1013.17 1013.41 1013.54 1014.00 1013.84 1013.50 1011.81 1010.18 1009.27 1009.59 1009.95 1009.73 1010.19 1010.36 1010.55 1010.77 1009.98 1009.44 1008.82 1008.51 1008.52 1007.70 1007.22 1006.94 1006.75 1006.81 1006.89 1006.96 1006.78 1006.89 1007.15 1007.52 1007.86 1008.31 1008.61 1008.76
1012.38 1012.90 1013.43 1013.91 1014.26 1014.54 1014.77 1014.91 1014.93 1014.82 1014.66 1014.44 1014.16 1013.87 1013.87 1013.79 1013.49 1013.04 1012.95 1013.20 1013.47 1014.23 1013.88 1013.12 1012.08 1011.21 1009.47 1009.89 1009.97 1010.10 1010.22 1010.74 1010.03 1010.23 1009.65 1008.91 1008.79 1008.62 1008.31 1007.98 1007.61 1007.16 1006.97 1007.09 1007.26 1007.47 1007.15 1007.30 1007.70 1007.94 1008.25 1008.61 1008.90 1009.00
1012.24 1012.69 1013.16 1013.62 1013.98 1014.26 1014.46 1014.66 1014.64 1014.49 1014.22 1014.00 1013.97 1013.73 1013.50 1012.72 1012.50 1012.94 1013.36 1013.46 1013.55 1013.51 1013.48 1012.84 1011.79 1011.18 1010.40 1010.42 1010.54 1010.80 1010.50 1010.59 1010.31 1009.30 1008.52 1008.73 1008.57 1008.42 1008.22 1008.11 1007.84 1007.26 1007.08 1007.04 1007.31 1007.40 1007.48 1007.68 1007.99 1008.23 1008.57 1008.83 1009.06 1009.22
1012.10 1012.52 1012.98 1013.39 1013.71 1013.99 1014.22 1014.38 1014.53 1014.34 1013.52 1013.63 1013.59 1013.33 1012.75 1012.23 1012.61 1012.98 1013.61 1013.54 1013.31 1013.00 1012.14 1011.41 1011.04 1010.78 1010.03 1010.78 1010.86 1010.76 1010.71 1010.42 1010.09 1009.12 1008.91 1008.80 1008.80 1008.51 1008.36 1008.26 1007.79 1007.55 1007.45 1007.49 1007.57 1007.55 1007.64 1007.83 1008.17 1008.55 1008.95 1009.21 1009.38 1009.50
1012.02 1012.43 1012.79 1013.19 1013.51 1013.72 1013.93 1014.30 1014.51 1014.42 1014.05 1014.43 1014.33 1013.53 1012.92 1012.62 1012.92 1013.05 1012.91 1012.58 1012.11 1011.19 1010.24 1010.22 1009.83 1009.81 1009.95 1010.19 1011.03 1010.81 1011.01 1010.56 1010.07 1009.30 1009.51 1009.31 1008.82 1008.32 1008.38 1008.31 1008.08 1007.91 1007.85 1007.91 1007.88 1007.98 1008.01 1008.22 1008.60 1008.99 1009.38 1009.62 1009.64 1009.64
1011.77 1012.13 1012.64 1012.99 1013.28 1013.49 1013.78 1014.06 1014.26 1014.24 1014.12 1013.80 1013.93 1013.80 1013.53 1013.31 1013.17 1012.60 1012.09 1011.42 1010.77 1009.88 1009.39 1009.46 1009.64 1009.92 1009.99 1010.48 1011.18 1011.39 1011.24 1010.58 1009.85 1009.82 1009.67 1008.92 1008.50 1008.45 1008.52 1008.52 1008.49 1008.40 1008.39 1008.45 1008.41 1008.45 1008.57 1008.78 1008.96 1009.23 1009.53 1009.58 1009.62 1009.62
1011.44 1011.89 1012.31 1012.65 1012.97 1013.24 1013.49 1013.80 1013.99 1014.16 1014.22 1013.76 1013.53 1013.41 1013.14 1012.50 1011.85 1010.97 1010.43 1009.85 1009.35 1008.91 1009.07 1009.32 1009.88 1010.56 1010.78 1011.16 1011.40 1011.65 1011.02 1010.59 1010.36 1009.99 1009.44 1009.00 1008.51 1008.57 1008.67 1008.74 1008.85 1009.04 1009.14 1009.17 1009.13 1009.01 1009.03 1009.03 1009.14 1009.18 1009.31 1009.36 1009.60 1009.52
1011.01 1011.47 1011.87 1012.23 1012.59 1012.95 1013.24 1013.55 1013.83 1014.10 1013.84 1013.16 1012.61 1012.33 1011.51 1010.78 1010.29 1009.88 1009.50 1009.17 1008.61 1008.45 1008.93 1009.59 1010.10 1010.51 1011.06 1011.47 1011.44 1011.24 1010.97 1010.38 1009.88 1009.27 1008.91 1008.62 1008.38 1008.60 1008.89 1009.09 1009.36 1009.54 1009.64 1009.66 1009.58 1009.51 1009.38 1009.10 1009.23 1009.22 1009.07 1008.96 1008.95 1008.75
1010.67 1011.19 1011.40 1011.70 1012.12 1012.60 1012.99 1013.35 1013.65 1013.70 1013.16 1012.45 1011.67 1010.82 1010.46 1010.42 1010.14 1009.85 1009.53 1009.09 1008.55 1008.79 1009.06 1009.69 1010.34 1010.78 1010.92 1010.96 1010.96 1010.56 1010.15 1009.51 1009.00 1008.80 1008.62 1008.43 1008.58 1008.73 1009.04 1009.34 1009.63 1009.74 1009.81 1009.80 1009.64 1009.46 1009.23 1009.04 1008.98 1008.74 1008.49 1008.38 1008.23 1008.18
1010.40 1010.48 1010.28 1010.99 1011.71 1012.29 1012.71 1013.05 1013.10 1012.96 1012.43 1011.40 1010.47 1009.91 1010.08 1010.00 1009.92 1009.46 1009.14 1008.78 1008.48 1009.03 1009.48 1009.83 1010.17 1010.34 1010.17 1010.34 1009.97 1009.19 1009.16 1008.97 1008.60 1008.71 1008.50 1008.38 1008.59 1008.83 1009.03 1009.28 1009.58 1009.68 1009.76 1009.70 1009.62 1009.49 1009.37 1009.10 1008.82 1008.57 1008.46 1008.43 1008.15 1007.75
1009.83 1009.93 1010.15 1010.73 1011.48 1012.19 1012.49 1012.70 1012.43 1011.76 1011.11 1010.36 1010.16 1009.54 1009.35 1009.21 1009.07 1008.97 1008.84 1008.52 1008.63 1008.75 1008.96 1009.16 1009.12 1009.21 1009.16 1008.66 1008.50 1008.39 1008.25 1007.98 1008.08 1008.07 1008.07 1008.04 1008.30 1008.62 1008.82 1009.15 1009.27 1009.43 1009.56 1009.67 1009.64 1009.60 1009.57 1009.44 1009.38 1009.21 1008.76 1008.37 1008.03 1007.64
1009.38 1009.65 1009.96 1010.58 1011.13 1011.42 1011.78 1011.91 1011.67 1010.95 1009.83 1009.35 1009.05 1008.90 1008.78 1008.53 1008.31 1008.31 1008.29 1008.20 1008.13 1008.18 1008.54 1008.56 1008.73 1007.91 1007.65 1007.43 1007.55 1007.62 1007.58 1007.70 1007.97 1007.90 1007.78 1007.85 1008.05 1008.56 1008.78 1008.92 1009.14 1009.36 1009.62 1009.81 1009.93 1010.06 1010.06 1009.92 1009.81 1009.52 1009.15 1008.63 1008.19 1007.71
1009.28 1009.60 1009.97 1010.60 1011.11 1011.22 1011.05 1010.89 1010.63 1010.22 1009.28 1008.44 1008.17 1008.20 1008.25 1007.97 1007.79 1007.72 1007.86 1007.99 1008.18 1008.32 1008.27 1007.57 1006.90 1006.80 1006.70 1006.68 1006.68 1007.00 1007.11 1007.25 1007.59 1007.83 1007.94 1008.01 1008.18 1008.48 1008.80 1009.03 1009.33 1009.50 1009.77 1010.06 1010.29 1010.39 1010.35 1010.31 1010.14 1009.90 1009.61 1009.23 1008.45 1008.06
1009.70 1010.00 1010.55 1010.82 1011.27 1011.34 1010.89 1010.05 1009.74 1009.17 1008.53 1008.15 1007.55 1007.55 1007.60 1007.20 1007.16 1007.25 1007.37 1007.41 1007.76 1007.67 1007.22 1006.44 1006.20 1006.09 1005.97 1005.96 1005.88 1005.92 1006.29 1006.57 1006.88 1007.30 1007.64 1008.12 1008.21 1008.49 1008.84 1009.19 1009.46 1009.83 1010.27 1010.59 1010.92 1010.85 1010.79 1010.80 1010.70 1010.23 1010.00 1009.69 1009.19 1008.85
1009.24 1010.04 1010.72 1011.23 1011.32 1011.12 1010.40 1009.41 1009.02 1008.47 1008.38 1007.79 1007.54 1007.26 1007.10 1006.94 1006.76 1006.68 1006.60 1006.96 1006.68 1006.28 1005.96 1005.68 1005.54 1005.52 1005.46 1005.36 1005.38 1005.33 1005.52 1005.93 1006.51 1006.90 1007.21 1007.63 1008.16 1008.59 1009.08 1009.32 1009.78 1010.44 1010.65 1010.90 1010.99 1011.09 1011.08 1011.05 1010.78 1010.46 1010.23 1009.96 1009.58 1009.26
1009.04 1009.81 1010.29 1010.71 1010.70 1010.12 1009.10 1008.43 1008.45 1008.14 1008.01 1007.46 1007.01 1006.87 1006.70 1006.51 1006.14 1005.82 1006.30 1005.86 1005.45 1005.01 1004.96 1004.94 1004.85 1004.75 1004.95 1004.76 1004.72 1004.83 1004.97 1005.64 1006.45 1007.01 1007.24 1007.61 1008.03 1008.41 1008.84 1009.38 1009.87 1010.49 1011.09 1011.05 1010.97 1011.29 1011.36 1011.05 1010.98 1010.88 1010.59 1010.39 1010.26 1010.09
1008.62 1009.19 1009.37 1009.39 1009.36 1008.77 1008.31 1007.91 1007.71 1007.48 1007.20 1006.96 1006.54 1006.28 1006.15 1005.90 1005.70 1006.03 1006.02 1005.21 1004.69 1004.48 1004.61 1004.67 1004.60 1004.71 1004.73 1004.75 1004.75 1004.75 1004.76 1005.06 1005.94 1006.60 1006.91 1007.42 1008.00 1008.53 1008.83 1009.41 1009.91 1010.30 1010.66 1010.90 1011.03 1011.26 1011.18 1011.19 1011.08 1011.11 1010.97 1011.02 1011.02 1010.94
1008.35 1008.57 1008.53 1007.74 1007.75 1007.79 1007.24 1007.11 1006.97 1006.90 1006.66 1006.39 1006.20 1006.04 1005.47 1005.47 1005.88 1006.01 1005.60 1005.00 1004.78 1005.09 1005.03 1005.03 1005.01 1005.03 1005.31 1005.09 1005.16 1005.22 1005.06 1005.35 1006.15 1006.84 1007.09 1007.37 1007.78 1008.39 1008.96 1009.30 1009.70 1010.00 1010.39 1011.06 1011.49 1011.63 1011.68 1011.15 1011.20 1011.47 1011.50 1011.50 1011.52 1011.47
1006.98 1006.76 1006.63 1006.02 1006.09 1006.24 1005.91 1005.95 1006.11 1006.02 1005.95 1005.92 1005.71 1005.31 1005.15 1005.42 1005.82 1005.47 1004.81 1004.50 1004.64 1004.97 1005.20 1005.20 1005.31 1005.27 1005.20 1005.17 1005.41 1005.68 1005.69 1005.54 1006.03 1006.71 1007.12 1007.30 1007.74 1008.32 1008.92 1009.39 1009.78 1010.11 1010.12 1010.62 1011.08 1011.67 1011.78 1011.73 1011.69 1011.71 1011.78 1011.90 1011.89 1012.08
1005.28 1004.82 1004.87 1004.87 1004.72 1004.69 1004.75 1004.73 1004.70 1004.86 1005.07 1005.09 1004.91 1005.13 1005.52 1005.66 1005.39 1004.55 1004.32 1004.32 1004.60 1004.74 1004.77 1004.91 1005.10 1005.37 1005.21 1005.29 1005.23 1005.38 1005.53 1005.85 1006.19 1006.48 1006.83 1007.31 1007.72 1008.04 1008.41 1008.91 1009.38 1009.60 1009.83 1010.46 1010.91 1011.20 1011.73 1011.85 1011.84 1011.80 1011.88 1011.93 1012.02 1012.21
1003.33 1003.12 1003.41 1004.03 1004.20 1004.13 1004.24 1004.21 1004.35 1004.49 1004.27 1004.14 1004.34 1004.68 1004.75 1004.54 1004.15 1004.07 1004.05 1004.22 1004.42 1004.58 1004.90 1004.70 1004.78 1004.92 1005.13 1005.28 1005.42 1005.75 1006.25 1006.45 1006.81 1007.08 1007.50 1007.96 1008.16 1008.45 1008.71 1009.03 1009.18 1009.42 1009.88 1010.20 1010.69 1011.20 1011.38 1011.39 1011.41 1011.53 1011.80 1012.26 1012.33 1012.69
1002.20 1001.88 1002.46 1003.21 1003.62 1003.70 1003.74 1003.68 1003.60 1003.26 1002.98 1003.29 1003.83 1003.91 1003.83 1003.71 1003.70 1003.72 1003.98 1004.06 1004.24 1004.86 1005.00 1005.13 1005.18 1005.25 1005.39 1005.49 1005.58 1005.75 1006.11 1006.37 1007.01 1007.51 1007.70 1008.01 1008.42 1008.82 1008.88 1009.20 1009.56 1009.83 1010.17 1010.44 1010.59 1010.80 1011.07 1011.26 1011.24 1011.30 1011.67 1011.88 1012.38 1013.06
1000.88 1000.93 1001.71 1002.40 1002.76 1002.67 1002.38 1002.41 1002.51 1002.36 1002.49 1002.90 1003.32 1003.73 1003.89 1003.96 1003.50 1003.17 1003.72 1004.00 1004.36 1004.71 1004.59 1004.71 1004.96 1005.32 1005.66 1005.76 1005.85 1005.97 1006.02 1006.08 1006.25 1006.72 1006.97 1007.24 1007.45 1007.81 1008.37 1008.83 1009.28 1009.56 1009.86 1010.40 1010.80 1011.03 1011.04 1011.29 1011.31 1011.64 1012.09 1012.66 1012.98 1013.55
1000.14 1000.61 1001.13 1001.55 1001.89 1001.68 1001.63 1001.86 1002.20 1002.40 1002.62 1003.06 1003.14 1003.79 1003.96 1003.86 1003.51 1003.32 1003.85 1004.07 1004.04 1004.17 1004.52 1004.74 1004.88 1005.04 1005.21 1005.28 1005.36 1005.57 1005.74 1005.67 1005.77 1006.04 1006.28 1006.47 1006.67 1007.27 1007.86 1008.30 1008.73 1009.14 1009.56 1010.07 1010.59 1010.96 1011.26 1011.42 1011.86 1012.41 1013.06 1013.92 1013.95 1014.29
999.55 999.91 1000.52 1000.96 1001.22 1001.48 1001.55 1001.82 1002.22 1002.90 1003.15 1003.58 1003.68 1003.70 1003.66 1003.90 1004.19 1004.44 1004.90 1004.65 1004.42 1004.49 1004.69 1004.75 1004.80 1004.96 1005.00 1004.82 1004.19 1004.11 1003.86 1004.18 1004.71 1005.18 1005.76 1006.12 1006.56 1006.97 1007.50 1008.03 1008.52 1008.95 1009.42 1010.01 1010.35 1010.78 1011.15 1011.70 1012.33 1012.97 1013.74 1014.33 1014.55 1014.88
999.49 999.88 1000.14 1000.60 1000.90 1001.20 1001.65 1002.25 1002.61 1003.11 1003.44 1003.69 1003.71 1003.65 1003.87 1004.35 1004.70 1005.03 1005.12 1005.18 1005.33 1005.45 1005.51 1005.51 1005.34 1005.13 1004.91 1004.63 1004.24 1003.58 1003.33 1003.60 1004.14 1004.81 1005.35 1005.76 1006.24 1006.88 1007.46 1007.97 1008.39 1008.84 1009.43 1009.94 1010.42 1010.91 1011.50 1012.06 1012.77 1013.36 1013.92 1014.47 1014.90 1015.24
Thickness
5425 5422 5419 5413 5409 5407 5407 5405 5403 5402 5400 5399 5398 5396 5394 5392 5388 5383 5378 5373 5360 5351 5353 5359 5357 5346 5344 5341 5330 5342 5339 5339 5339 5325 5325 5341 5361 5370 5375 5390 5389 5383 5380 5369 5379 5371 5378 5406 5421 5412 5399 5400 5414 5416
5419 5416 5412 5408 5406 5404 5402 5401 5400 5399 5397 5396 5395 5394 5392 5389 5385 5380 5373 5374 5366 5353 5351 5359 5360 5359 5353 5355 5347 5345 5343 5340 5328 5317 5327 5344 5361 5363 5366 5370 5381 5384 5384 5372 5371 5369 5380 5382 5396 5411 5410 5407 5406 5403
5413 5410 5407 5403 5401 5399 5398 5398 5397 5395 5394 5393 5392 5391 5389 5386 5383 5378 5374 5373 5365 5356 5357 5362 5368 5375 5372 5367 5367 5343 5348 5356 5340 5347 5341 5345 5352 5362 5367 5369 5372 5383 5381 5380 5388 5379 5378 5376 5391 5397 5402 5396 5393 5392
5407 5404 5401 5398 5396 5396 5395 5395 5394 5392 5391 5391 5390 5388 5386 5385 5381 5378 5373 5375 5368 5357 5349 5360 5376 5370 5374 5373 5372 5368 5364 5363 5359 5352 5349 5339 5355 5375 5373 5385 5385 5380 5391 5390 5377 5373 5374 5381 5390 5395 5391 5387 5383 5381
5401 5399 5396 5394 5394 5393 5393 5392 5391 5390 5389 5388 5387 5385 5384 5383 5381 5379 5376 5376 5372 5356 5338 5351 5369 5378 5379 5378 5376 5377 5370 5365 5359 5346 5343 5350 5366 5369 5375 5379 5382 5394 5394 5373 5367 5390 5386 5388 5388 5386 5381 5376 5374 5372
5395 5394 5392 5391 5391 5390 5389 5388 5388 5388 5387 5386 5385 5384 5383 5382 5381 5377 5374 5379 5375 5367 5351 5346 5372 5383 5382 5380 5379 5377 5370 5365 5358 5355 5354 5364 5382 5372 5370 5372 5381 5388 5399 5393 5385 5389 5385 5383 5380 5379 5371 5368 5365 5362
5391 5390 5389 5388 5387 5386 5386 5386 5385 5385 5385 5384 5384 5384 5383 5381 5378 5375 5375 5376 5374 5369 5356 5349 5359 5387 5388 5384 5376 5373 5374 5367 5361 5357 5357 5364 5372 5371 5368 5371 5382 5389 5389 5387 5386 5384 5374 5375 5369 5369 5365 5360 5358 5354
5388 5387 5385 5384 5383 5383 5382 5382 5382 5383 5383 5384 5384 5384 5384 5382 5379 5376 5382 5377 5372 5365 5363 5358 5362 5378 5389 5367 5362 5372 5364 5363 5360 5356 5363 5368 5372 5369 5363 5384 5385 5384 5384 5374 5364 5360 5366 5366 5365 5362 5357 5352 5349 5346
5383 5382 5381 5380 5380 5379 5379 5379 5380 5381 5382 5384 5385 5385 5384 5381 5377 5384 5381 5376 5372 5361 5358 5356 5357 5349 5386 5374 5367 5365 5366 5349 5364 5357 5363 5370 5366 5362 5375 5371 5374 5376 5374 5363 5358 5352 5359 5358 5354 5353 5348 5345 5341 5339
5377 5378 5377 5377 5376 5376 5376 5376 5378 5380 5382 5383 5383 5385 5371 5385 5387 5382 5374 5365 5366 5362 5360 5356 5369 5359 5380 5365 5355 5358 5353 5351 5349 5363 5373 5367 5364 5370 5368 5365 5365 5372 5372 5367 5357 5353 5353 5351 5349 5348 5342 5340 5338 5335
5372 5372 5372 5371 5372 5372 5372 5373 5373 5376 5383 5383 5381 5381 5386 5388 5382 5376 5357 5363 5359 5364 5367 5369 5371 5364 5379 5359 5353 5359 5344 5352 5348 5361 5364 5361 5345 5357 5360 5355 5362 5365 5365 5361 5358 5357 5354 5352 5348 5342 5336 5333 5329 5325
5366 5366 5366 5366 5367 5368 5368 5367 5368 5370 5374 5370 5371 5378 5382 5380 5374 5377 5362 5373 5375 5384 5388 5381 5383 5385 5383 5376 5353 5357 5361 5359 5366 5366 5346 5335 5356 5364 5356 5360 5360 5359 5356 5354 5352 5350 5349 5346 5337 5332 5326 5322 5320 5319
5361 5361 5361 5361 5362 5363 5363 5363 5364 5365 5367 5371 5370 5372 5369 5367 5361 5367 5348 5379 5365 5387 5393 5393 5375 5380 5375 5367 5352 5353 5349 5340 5364 5338 5341 5352 5362 5361 5356 5354 5351 5349 5345 5343 5342 5338 5335 5331 5327 5323 5317 5313 5309 5307
5355 5356 5356 5357 5358 5359 5359 5359 5360 5360 5361 5365 5365 5360 5361 5360 5375 5383 5388 5391 5390 5395 5394 5387 5371 5365 5356 5352 5349 5346 5356 5363 5341 5330 5361 5346 5361 5354 5351 5349 5347 5340 5331 5329 5328 5327 5322 5320 5314 5308 5303 5299 5300 5297
5351 5351 5352 5353 5353 5354 5355 5355 5354 5354 5358 5364 5372 5359 5378 5386 5391 5394 5392 5396 5398 5397 5387 5370 5365 5361 5349 5346 5349 5355 5352 5345 5350 5353 5345 5357 5362 5356 5348 5343 5335 5330 5320 5320 5319 5316 5312 5312 5308 5303 5297 5296 5294 5292
5346 5346 5348 5350 5349 5349 5349 5348 5348 5350 5356 5366 5376 5379 5384 5383 5380 5383 5382 5382 5390 5386 5377 5367 5364 5347 5348 5348 5356 5344 5363 5341 5349 5358 5350 5352 5356 5346 5339 5334 5328 5324 5320 5317 5314 5312 5312 5309 5306 5305 5302 5296 5292 5285
5341 5344 5350 5347 5345 5343 5343 5343 5345 5350 5355 5371 5370 5376 5377 5379 5379 5380 5381 5381 5384 5374 5358 5357 5346 5347 5350 5341 5343 5353 5342 5344 5349 5349 5349 5351 5345 5338 5334 5331 5321 5320 5317 5314 5311 5309 5305 5302 5299 5296 5295 5288 5283 5281
5338 5341 5343 5341 5339 5336 5337 5337 5341 5351 5360 5365 5363 5367 5372 5374 5372 5372 5377 5378 5375 5370 5368 5363 5367 5361 5346 5365 5348 5349 5350 5348 5347 5349 5345 5346 5344 5336 5331 5326 5324 5320 5314 5309 5306 5302 5297 5292 5287 5283 5282 5278 5273 5270
5334 5335 5336 5334 5333 5333 5332 5334 5339 5346 5361 5363 5367 5369 5371 5370 5375 5375 5373 5373 5372 5370 5364 5363 5360 5360 5366 5357 5349 5347 5347 5346 5343 5340 5339 5342 5336 5327 5324 5324 5319 5314 5307 5303 5298 5291 5286 5282 5277 5273 5270 5267 5263 5260
5326 5326 5327 5324 5323 5325 5330 5333 5339 5340 5354 5362 5366 5364 5365 5368 5371 5366 5366 5364 5362 5359 5354 5359 5369 5364 5357 5358 5352 5349 5343 5342 5336 5331 5328 5325 5324 5322 5318 5315 5309 5306 5299 5295 5288 5282 5278 5273 5268 5264 5259 5256 5256 5251
5314 5315 5313 5314 5313 5314 5320 5329 5333 5341 5348 5352 5363 5365 5362 5368 5362 5360 5358 5361 5356 5354 5353 5360 5363 5361 5358 5357 5353 5350 5343 5340 5334 5331 5324 5316 5316 5313 5308 5304 5301 5295 5288 5282 5276 5273 5270 5264 5257 5257 5249 5245 5241 5236
5307 5303 5300 5298 5299 5304 5313 5325 5328 5338 5338 5347 5351 5356 5352 5351 5351 5355 5357 5356 5356 5360 5359 5361 5362 5352 5352 5354 5350 5349 5344 5338 5328 5321 5316 5311 5307 5302 5297 5294 5289 5281 5276 5272 5269 5263 5259 5255 5251 5247 5244 5240 5234 5229
5297 5294 5293 5292 5295 5303 5314 5324 5325 5329 5326 5339 5346 5349 5347 5347 5351 5357 5348 5355 5356 5357 5359 5357 5357 5356 5352 5351 5349 5346 5341 5330 5320 5315 5311 5304 5300 5297 5291 5286 5279 5271 5264 5264 5264 5258 5252 5249 5243 5237 5237 5228 5222 5217
5289 5287 5291 5294 5296 5304 5314 5317 5324 5328 5329 5333 5340 5342 5345 5343 5352 5345 5348 5349 5353 5353 5351 5356 5347 5342 5342 5343 5332 5334 5331 5325 5316 5308 5304 5298 5294 5289 5285 5279 5273 5268 5263 5260 5257 5252 5247 5243 5241 5233 5229 5223 5212 5206
5280 5282 5287 5301 5304 5301 5314 5314 5319 5323 5315 5326 5332 5325 5332 5343 5329 5332 5341 5341 5341 5336 5335 5335 5332 5330 5324 5322 5317 5316 5320 5315 5308 5299 5294 5292 5285 5280 5274 5272 5267 5263 5259 5249 5244 5241 5239 5240 5235 5226 5224 5216 5208 5208
5278 5287 5290 5301 5304 5307 5316 5310 5311 5312 5318 5317 5321 5330 5330 5325 5324 5321 5335 5333 5332 5328 5324 5318 5317 5317 5316 5317 5309 5304 5303 5303 5301 5293 5286 5283 5278 5271 5265 5263 5258 5254 5254 5248 5239 5234 5231 5228 5225 5224 5216 5208 5201 5192
5280 5292 5302 5305 5315 5319 5314 5322 5326 5320 5315 5315 5317 5317 5312 5305 5297 5317 5324 5325 5322 5320 5320 5317 5312 5309 5307 5305 5304 5300 5296 5292 5288 5284 5280 5275 5269 5264 5260 5255 5254 5251 5248 5243 5237 5231 5225 5220 5218 5214 5214 5199 5193 5189
5290 5303 5298 5300 5299 5310 5296 5304 5306 5306 5307 5318 5319 5310 5304 5300 5307 5316 5316 5316 5313 5312 5310 5307 5305 5301 5297 5294 5291 5288 5281 5278 5273 5270 5265 5260 5256 5251 5249 5245 5244 5243 5238 5234 5230 5226 5221 5216 5212 5208 5205 5193 5189 5185
5292 5306 5304 5287 5287 5294 5298 5299 5303 5310 5313 5314 5306 5301 5304 5312 5310 5308 5305 5304 5302 5298 5293 5289 5286 5284 5281 5280 5279 5277 5273 5270 5262 5252 5251 5246 5240 5238 5238 5235 5232 5230 5228 5225 5223 5219 5216 5212 5211 5208 5197 5193 5188 5176
5290 5303 5290 5286 5281 5287 5295 5302 5302 5304 5306 5302 5300 5299 5299 5298 5297 5300 5297 5295 5290 5287 5288 5286 5277 5274 5267 5268 5266 5263 5261 5259 5257 5250 5246 5244 5242 5238 5233 5230 5227 5224 5221 5218 5214 5211 5210 5205 5203 5197 5190 5182 5173 5166
5292 5290 5286 5285 5281 5289 5295 5295 5291 5288 5289 5289 5286 5285 5286 5281 5283 5287 5283 5281 5282 5280 5280 5274 5271 5273 5265 5264 5262 5257 5255 5253 5250 5247 5244 5240 5238 5233 5228 5225 5221 5218 5215 5212 5209 5204 5199 5199 5191 5184 5177 5167 5161 5155
5286 5283 5279 5278 5281 5280 5279 5281 5281 5277 5271 5271 5269 5271 5272 5272 5272 5271 5263 5266 5269 5269 5266 5263 5262 5256 5254 5256 5261 5260 5258 5255 5249 5244 5238 5234 5230 5225 5221 5217 5214 5211 5209 5205 5202 5197 5193 5188 5180 5173 5165 5158 5151 5145
5271 5271 5270 5270 5270 5270 5268 5265 5265 5260 5258 5257 5259 5260 5260 5255 5253 5248 5249 5247 5245 5242 5241 5243 5244 5244 5244 5244 5248 5253 5252 5248 5243 5237 5232 5228 5223 5218 5214 5210 5207 5204 5201 5197 5193 5188 5182 5177 5169 5162 5155 5148 5141 5136